Regional Weather Roundup
Issued by NWS State College, PA

Home | Current Version | Previous Version | Graphics & Text | Print | Product List | Glossary On
Versions: 1 2 3 4 5 6 7 8 9 10 11 12 13 14 15 16 17 18 19 20 21 22 23 24 25 26 27 28 29 30 31 32 33 34 35 36 37 38 39 40 41 42 43 44 45 46 47 48 49 50
000
ASUS41 KCTP 260603
RWRCTP

REGIONAL WEATHER ROUNDUP
NATIONAL WEATHER SERVICE STATE COLLEGE PA
200 AM EDT FRI MAY 26 2017

Note: "fair" indicates few or no clouds below 12,000 feet with no
significant weather and/or obstructions to visibility.

* = STATION THAT DOES NOT REPORT PRECIPITATION /E.G. RAIN...SNOW...ETC/
    THUNDER OR FOG.

PAZ002>004-007>009-013>016-020>023-029>032-260700-
WESTERN PENNSYLVANIA

CITY           SKY/WX    TMP DP  RH WIND       PRES   REMARKS
ERIE           LGT RAIN  56  55  97 W7        29.58R FOG
MEADVILLE      LGT RAIN  54  54 100 SW7       29.60R FOG
FRANKLIN*      CLOUDY    54  52  94 W9        29.61R
NEW CASTLE     CLOUDY    56  56 100 SW6       29.62R
BEAVER COUNTY  NOT AVBL
BUTLER*        CLOUDY    57  54  88 W6        29.61S
PITTSBURGH INT CLOUDY    57  57 100 W6        29.62R
PITTSBURGH     CLOUDY    57  54  89 W9        29.61S
INDIANA*       CLOUDY    57  57 100 W6        29.63R
LATROBE        LGT RAIN  55  55 100 SW7       29.63R
WASHINGTON CO* CLOUDY    55  54  94 W7        29.66R
$$

PAZ004>006-010>012-017>019-024>028-033>037-041-042-045-046-049>053-260700-
CENTRAL PENNSYLVANIA

CITY           SKY/WX    TMP DP  RH WIND       PRES   REMARKS
BRADFORD       CLOUDY    55  54  96 W8        29.58S
DUBOIS         CLOUDY    55  52  89 W5        29.59R
CLEARFIELD     CLOUDY    57  56  96 W5        29.58S
JOHNSTOWN      CLOUDY    54  54 100 W8        29.60S
ALTOONA        CLOUDY    58  55  90 W5        29.59S
STATE COLLEGE  CLOUDY    56  55  94 S3        29.56S
WILLIAMSPORT   CLOUDY    59  58  96 W7        29.51S
SELINSGROVE    CLOUDY    59  58  96 CALM      29.53S
FT INDIANTOWN  NOT AVBL
CAPITAL CITY   MOCLDY    59  56  89 W7        29.53R
HARRISBURG     MOCLDY    59  57  93 W10       29.52R
YORK           MOCLDY    58  57  97 W6        29.54R
$$

PAZ038>040-043-044-047-048-054-055-060>062-067>071-260700-
EASTERN PENNSYLVANIA

CITY           SKY/WX    TMP DP  RH WIND       PRES   REMARKS
SCRANTON       CLOUDY    59  56  89 CALM      29.51S
MOUNT POCONO   CLOUDY    52  52 100 N5        29.51S FOG
ALLENTOWN      LGT RAIN  59  56  89 S5        29.49R
QUAKERTOWN*    CLOUDY    57  57 100 CALM      29.51R
READING        CLOUDY    61  60  97 NW9       29.50R
LANCASTER      CLOUDY    60  58  92 W10       29.52R
COATESVILLE    CLOUDY    59  59 100 NW13      29.52R FOG
POTTSTOWN      LGT RAIN  56  55  97 CALM      29.52R
BLUE BELL      CLOUDY    55  55 100 W3        29.52R
DOYLESTOWN     CLOUDY    56  56 100 S5        29.49R
WILLOW GROVE   NOT AVBL
NORTH PHILA    CLOUDY    59  57  93 SW9       29.51R
PHILADELPHIA   LGT RAIN  58  57  97 S3        29.51S FOG
$$



USA.gov is the U.S. government's official web portal to all federal, state and local government web resources and services.